Wetterdaten: Dienstag, 02.12.2003
Datum Zeit Temp. A Sch. Temp. A Son. Feuchte A. Luftdruck Regen Wind Richtung Richtung Sonnenschein Helligkeit Taupunkt Windchill
02.12.2003 00:00 4,1 C 4,6 C 85 % 1011 hPa 0,0 l/m 0,0 m/s (0 Bft) SW 225 0,00 min 0 lux 1,8 C 4,1 C
02.12.2003 00:05 4,1 C 4,6 C 85 % 1011 hPa 0,0 l/m 0,0 m/s (0 Bft) SW 225 0,00 min 0 lux 1,8 C 4,1 C
02.12.2003 00:10 4,1 C 4,6 C 85 % 1011 hPa 0,0 l/m 0,0 m/s (0 Bft) SW 225 0,00 min 0 lux 1,8 C 4,1 C
02.12.2003 00:15 4,1 C 4,7 C 85 % 1011 hPa 0,0 l/m 0,0 m/s (0 Bft) SW 225 0,00 min 0 lux 1,8 C 4,1 C
02.12.2003 00:20 4,2 C 4,7 C 85 % 1011 hPa 0,0 l/m 0,0 m/s (0 Bft) SW 225 0,00 min 0 lux 1,9 C 4,2 C
02.12.2003 00:25 4,2 C 4,7 C 85 % 1011 hPa 0,0 l/m 0,0 m/s (0 Bft) SW 225 0,00 min 0 lux 1,9 C 4,2 C
02.12.2003 00:30 4,2 C 4,7 C 85 % 1011 hPa 0,0 l/m 0,0 m/s (0 Bft) SW 225 0,00 min 0 lux 1,9 C 4,2 C
02.12.2003 00:35 4,2 C 4,7 C 85 % 1011 hPa 0,0 l/m 0,0 m/s (0 Bft) SW 225 0,00 min 0 lux 1,9 C 4,2 C
02.12.2003 00:40 4,1 C 4,7 C 85 % 1011 hPa 0,0 l/m 0,0 m/s (0 Bft) SW 225 0,00 min 0 lux 1,8 C 4,1 C
02.12.2003 00:45 4,2 C 4,7 C 85 % 1011 hPa 0,0 l/m 0,0 m/s (0 Bft) SW 225 0,00 min 0 lux 1,9 C 4,2 C
02.12.2003 00:50 4,2 C 4,7 C 85 % 1011 hPa 0,0 l/m 0,0 m/s (0 Bft) SW 225 0,00 min 0 lux 1,9 C 4,2 C
02.12.2003 00:55 4,2 C 4,7 C 85 % 1011 hPa 0,0 l/m 0,0 m/s (0 Bft) SW 225 0,00 min 0 lux 1,9 C 4,2 C
02.12.2003 01:00 4,2 C 4,7 C 85 % 1011 hPa 0,0 l/m 0,0 m/s (0 Bft) SW 225 0,00 min 0 lux 1,9 C 4,2 C
02.12.2003 01:05 4,2 C 4,7 C 85 % 1011 hPa 0,0 l/m 0,0 m/s (0 Bft) SW 225 0,00 min 0 lux 1,9 C 4,2 C
02.12.2003 01:10 4,2 C 4,7 C 85 % 1011 hPa 0,0 l/m 0,0 m/s (0 Bft) SW 225 0,00 min 0 lux 1,9 C 4,2 C
02.12.2003 01:15 4,2 C 4,7 C 85 % 1011 hPa 0,0 l/m 0,0 m/s (0 Bft) SW 225 0,00 min 0 lux 1,9 C 4,2 C
02.12.2003 01:20 4,2 C 4,7 C 85 % 1011 hPa 0,0 l/m 0,0 m/s (0 Bft) SW 225 0,00 min 0 lux 1,9 C 4,2 C
02.12.2003 01:25 4,3 C 4,7 C 85 % 1011 hPa 0,0 l/m 0,0 m/s (0 Bft) SW 225 0,00 min 0 lux 2,0 C 4,3 C
02.12.2003 01:30 4,3 C 4,8 C 85 % 1011 hPa 0,0 l/m 0,0 m/s (0 Bft) SW 225 0,00 min 0 lux 2,0 C 4,3 C
02.12.2003 01:35 4,3 C 4,7 C 85 % 1011 hPa 0,0 l/m 0,0 m/s (0 Bft) SW 225 0,00 min 0 lux 2,0 C 4,3 C
02.12.2003 01:40 4,1 C 4,7 C 85 % 1011 hPa 0,0 l/m 0,0 m/s (0 Bft) SW 225 0,00 min 0 lux 1,8 C 4,1 C
02.12.2003 01:45 4,1 C 4,7 C 85 % 1011 hPa 0,0 l/m 0,0 m/s (0 Bft) SW 225 0,00 min 0 lux 1,8 C 4,1 C
02.12.2003 01:50 4,0 C 4,7 C 85 % 1011 hPa 0,0 l/m 0,0 m/s (0 Bft) SW 225 0,00 min 0 lux 1,7 C 4,0 C
02.12.2003 01:55 4,1 C 4,6 C 85 % 1011 hPa 0,0 l/m 0,0 m/s (0 Bft) SW 225 0,00 min 0 lux 1,8 C 4,1 C
02.12.2003 02:00 4,0 C 4,6 C 86 % 1011 hPa 0,0 l/m 0,0 m/s (0 Bft) SW 225 0,00 min 0 lux 1,9 C 4,0 C
02.12.2003 02:05 4,0 C 4,6 C 86 % 1011 hPa 0,0 l/m 0,0 m/s (0 Bft) SW 225 0,00 min 0 lux 1,9 C 4,0 C
02.12.2003 02:10 3,9 C 4,4 C 87 % 1012 hPa 0,0 l/m 0,0 m/s (0 Bft) S-SO67.5 165 0,00 min 0 lux 1,9 C 3,9 C
02.12.2003 02:15 3,8 C 4,4 C 87 % 1012 hPa 0,0 l/m 0,0 m/s (0 Bft) O-SO 110 0,00 min 0 lux 1,8 C 3,8 C
02.12.2003 02:20 3,7 C 4,4 C 87 % 1012 hPa 0,0 l/m 0,0 m/s (0 Bft) O-SO 110 0,00 min 0 lux 1,7 C 3,7 C
02.12.2003 02:25 3,7 C 4,3 C 87 % 1012 hPa 0,0 l/m 0,0 m/s (0 Bft) SW 235 0,00 min 0 lux 1,7 C 3,7 C
02.12.2003 02:30 3,8 C 4,3 C 87 % 1012 hPa 0,0 l/m 0,0 m/s (0 Bft) SW 235 0,00 min 0 lux 1,8 C 3,8 C
02.12.2003 02:35 3,7 C 4,3 C 87 % 1012 hPa 0,0 l/m 0,0 m/s (0 Bft) SW 235 0,00 min 0 lux 1,7 C 3,7 C
02.12.2003 02:40 3,6 C 4,2 C 87 % 1012 hPa 0,0 l/m 0,0 m/s (0 Bft) SW 235 0,00 min 0 lux 1,6 C 3,6 C
02.12.2003 02:45 3,6 C 4,2 C 87 % 1012 hPa 0,0 l/m 0,0 m/s (0 Bft) S-SO45 150 0,00 min 0 lux 1,6 C 3,6 C
02.12.2003 02:50 3,5 C 4,1 C 87 % 1012 hPa 0,0 l/m 0,1 m/s (0 Bft) NO22.5 40 0,00 min 0 lux 1,5 C 3,5 C
02.12.2003 02:55 3,5 C 4,0 C 87 % 1012 hPa 0,0 l/m 0,0 m/s (0 Bft) N22.5 5 0,00 min 0 lux 1,5 C 3,5 C
02.12.2003 03:00 3,4 C 3,9 C 87 % 1012 hPa 0,0 l/m 0,1 m/s (0 Bft) W-NW67.5 295 0,00 min 0 lux 1,4 C 3,4 C
02.12.2003 03:05 3,3 C 3,9 C 87 % 1012 hPa 0,0 l/m 0,1 m/s (0 Bft) SW 225 0,00 min 0 lux 1,3 C 3,3 C
02.12.2003 03:10 3,1 C 3,8 C 87 % 1012 hPa 0,0 l/m 0,0 m/s (0 Bft) SW 225 0,00 min 0 lux 1,2 C 3,1 C
02.12.2003 03:15 3,0 C 3,7 C 87 % 1012 hPa 0,0 l/m 0,0 m/s (0 Bft) SW 225 0,00 min 0 lux 1,1 C 3,0 C
02.12.2003 03:20 3,0 C 3,7 C 87 % 1012 hPa 0,0 l/m 0,0 m/s (0 Bft) SW 225 0,00 min 0 lux 1,1 C 3,0 C
02.12.2003 03:25 2,8 C 3,5 C 88 % 1012 hPa 0,0 l/m 0,0 m/s (0 Bft) SW 225 0,00 min 0 lux 1,0 C 2,8 C
02.12.2003 03:30 2,8 C 3,5 C 89 % 1012 hPa 0,0 l/m 0,0 m/s (0 Bft) SW 225 0,00 min 0 lux 1,2 C 2,8 C
02.12.2003 03:35 2,6 C 3,4 C 89 % 1012 hPa 0,0 l/m 0,0 m/s (0 Bft) SW 225 0,00 min 0 lux 1,0 C 2,6 C
02.12.2003 03:40 2,5 C 3,3 C 89 % 1012 hPa 0,0 l/m 0,0 m/s (0 Bft) SW 225 0,00 min 0 lux 0,9 C 2,5 C
02.12.2003 03:45 2,8 C 3,3 C 89 % 1012 hPa 0,4 l/m 0,0 m/s (0 Bft) SW 225 0,00 min 0 lux 1,2 C 2,8 C
02.12.2003 03:50 3,0 C 3,2 C 89 % 1012 hPa 0,0 l/m 0,0 m/s (0 Bft) SW 225 0,00 min 0 lux 1,4 C 3,0 C
02.12.2003 03:55 2,8 C 3,2 C 90 % 1012 hPa 0,0 l/m 0,9 m/s (0 Bft) W-SW22.5 240 0,00 min 0 lux 1,3 C 2,8 C
02.12.2003 04:00 2,7 C 3,2 C 90 % 1012 hPa 0,0 l/m 0,0 m/s (0 Bft) W-SW 240 0,00 min 0 lux 1,2 C 2,7 C
02.12.2003 04:05 2,6 C 3,2 C 90 % 1012 hPa 0,0 l/m 0,0 m/s (0 Bft) W-SW 240 0,00 min 0 lux 1,1 C 2,6 C
02.12.2003 04:10 2,6 C 3,2 C 90 % 1012 hPa 0,0 l/m 0,0 m/s (0 Bft) W-SW 250 0,00 min 0 lux 1,1 C 2,6 C
02.12.2003 04:15 2,4 C 3,1 C 90 % 1012 hPa 0,0 l/m 0,1 m/s (0 Bft) W-SW 245 0,00 min 0 lux 0,9 C 2,4 C
02.12.2003 04:20 2,3 C 3,0 C 90 % 1012 hPa 0,0 l/m 0,0 m/s (0 Bft) W-SW 245 0,00 min 0 lux 0,8 C 2,3 C
02.12.2003 04:25 2,2 C 3,0 C 90 % 1012 hPa 0,0 l/m 0,0 m/s (0 Bft) W-SW 245 0,00 min 0 lux 0,7 C 2,2 C
02.12.2003 04:30 2,2 C 3,0 C 90 % 1012 hPa 0,0 l/m 0,0 m/s (0 Bft) W-SW 245 0,00 min 0 lux 0,7 C 2,2 C
02.12.2003 04:35 2,2 C 3,0 C 90 % 1013 hPa 0,0 l/m 0,0 m/s (0 Bft) W-SW 245 0,00 min 0 lux 0,7 C 2,2 C
02.12.2003 04:40 2,1 C 3,0 C 90 % 1013 hPa 0,0 l/m 0,0 m/s (0 Bft) W-SW 245 0,00 min 0 lux 0,6 C 2,1 C
02.12.2003 04:45 1,9 C 3,0 C 91 % 1013 hPa 0,0 l/m 0,0 m/s (0 Bft) W-SW 245 0,00 min 0 lux 0,6 C 1,9 C
02.12.2003 04:50 2,1 C 2,9 C 90 % 1013 hPa 0,0 l/m 0,0 m/s (0 Bft) W-SW 245 0,00 min 0 lux 0,6 C 2,1 C
02.12.2003 04:55 2,0 C 2,9 C 90 % 1013 hPa 0,0 l/m 0,0 m/s (0 Bft) W-SW 245 0,00 min 0 lux 0,5 C 2,0 C
02.12.2003 05:00 2,0 C 2,9 C 90 % 1013 hPa 0,0 l/m 0,0 m/s (0 Bft) W-SW 245 0,00 min 0 lux 0,5 C 2,0 C
02.12.2003 05:05 2,0 C 2,8 C 90 % 1013 hPa 0,0 l/m 0,0 m/s (0 Bft) W-SW 245 0,00 min 0 lux 0,5 C 2,0 C
02.12.2003 05:10 2,1 C 2,8 C 90 % 1013 hPa 0,0 l/m 0,0 m/s (0 Bft) W-SW 245 0,00 min 0 lux 0,6 C 2,1 C
02.12.2003 05:15 2,2 C 2,8 C 91 % 1013 hPa 0,0 l/m 0,0 m/s (0 Bft) W-SW 245 0,00 min 0 lux 0,9 C 2,2 C
02.12.2003 05:20 2,4 C 2,8 C 91 % 1013 hPa 0,0 l/m 0,0 m/s (0 Bft) W-SW 245 0,00 min 0 lux 1,1 C 2,4 C
02.12.2003 05:25 2,4 C 2,8 C 91 % 1013 hPa 0,0 l/m 0,0 m/s (0 Bft) W-SW 245 0,00 min 0 lux 1,1 C 2,4 C
02.12.2003 05:30 2,2 C 2,8 C 91 % 1013 hPa 0,0 l/m 0,0 m/s (0 Bft) W-SW 245 0,00 min 0 lux 0,9 C 2,2 C
02.12.2003 05:35 2,0 C 2,8 C 90 % 1013 hPa 0,0 l/m 0,0 m/s (0 Bft) W-SW 245 0,00 min 0 lux 0,5 C 2,0 C
02.12.2003 05:40 2,1 C 2,8 C 90 % 1013 hPa 0,0 l/m 0,0 m/s (0 Bft) W-SW 245 0,00 min 0 lux 0,6 C 2,1 C
02.12.2003 05:45 2,3 C 2,7 C 91 % 1013 hPa 0,0 l/m 0,0 m/s (0 Bft) W-SW 245 0,00 min 0 lux 1,0 C 2,3 C
02.12.2003 05:50 2,3 C 2,8 C 91 % 1013 hPa 0,0 l/m 0,0 m/s (0 Bft) W-SW 245 0,00 min 0 lux 1,0 C 2,3 C
02.12.2003 05:55 2,5 C 2,8 C 91 % 1013 hPa 0,0 l/m 0,0 m/s (0 Bft) W-SW 245 0,00 min 0 lux 1,2 C 2,5 C
02.12.2003 06:00 2,2 C 2,8 C 91 % 1013 hPa 0,0 l/m 0,0 m/s (0 Bft) W-SW 245 0,00 min 0 lux 0,9 C 2,2 C
02.12.2003 06:05 2,3 C 2,8 C 91 % 1013 hPa 0,0 l/m 0,0 m/s (0 Bft) W-SW 250 0,00 min 0 lux 1,0 C 2,3 C
02.12.2003 06:10 2,2 C 2,8 C 91 % 1013 hPa 0,0 l/m 0,0 m/s (0 Bft) O-NO 75 0,00 min 0 lux 0,9 C 2,2 C
02.12.2003 06:15 1,9 C 2,7 C 91 % 1013 hPa 0,0 l/m 0,0 m/s (0 Bft) O-NO 75 0,00 min 0 lux 0,6 C 1,9 C
02.12.2003 06:20 1,8 C 2,6 C 91 % 1013 hPa 0,0 l/m 0,0 m/s (0 Bft) O-NO 75 0,00 min 0 lux 0,5 C 1,8 C
02.12.2003 06:25 1,7 C 2,6 C 91 % 1013 hPa 0,0 l/m 0,0 m/s (0 Bft) O-NO 75 0,00 min 0 lux 0,4 C 1,7 C
02.12.2003 06:30 1,6 C 2,6 C 91 % 1013 hPa 0,0 l/m 0,0 m/s (0 Bft) O-NO 75 0,00 min 0 lux 0,3 C 1,6 C
02.12.2003 06:35 1,6 C 2,5 C 91 % 1013 hPa 0,0 l/m 0,0 m/s (0 Bft) O-NO 75 0,00 min 0 lux 0,3 C 1,6 C
02.12.2003 06:40 1,6 C 2,4 C 91 % 1013 hPa 0,0 l/m 0,0 m/s (0 Bft) O-NO 75 0,00 min 0 lux 0,3 C 1,6 C
02.12.2003 06:45 1,5 C 2,4 C 91 % 1013 hPa 0,0 l/m 0,0 m/s (0 Bft) O-NO 75 0,00 min 0 lux 0,2 C 1,5 C
02.12.2003 06:50 1,5 C 2,4 C 91 % 1013 hPa 0,0 l/m 0,0 m/s (0 Bft) O-NO 75 0,00 min 0 lux 0,2 C 1,5 C
02.12.2003 06:55 1,5 C 2,4 C 91 % 1013 hPa 0,0 l/m 0,0 m/s (0 Bft) O-NO 75 0,00 min 0 lux 0,2 C 1,5 C
02.12.2003 07:00 1,4 C 2,4 C 91 % 1013 hPa 0,0 l/m 0,0 m/s (0 Bft) O-NO 75 0,00 min 0 lux 0,1 C 1,4 C
02.12.2003 07:05 1,6 C 2,3 C 91 % 1013 hPa 0,0 l/m 0,0 m/s (0 Bft) O-NO 75 0,00 min 0 lux 0,3 C 1,6 C
02.12.2003 07:10 1,6 C 2,3 C 91 % 1013 hPa 0,0 l/m 0,0 m/s (0 Bft) O-NO 75 0,00 min 0 lux 0,3 C 1,6 C
02.12.2003 07:15 1,5 C 2,4 C 91 % 1013 hPa 0,0 l/m 0,0 m/s (0 Bft) O-NO 75 0,00 min 0 lux 0,2 C 1,5 C
02.12.2003 07:20 1,5 C 2,4 C 91 % 1013 hPa 0,0 l/m 0,0 m/s (0 Bft) O-NO 75 0,00 min 0 lux 0,2 C 1,5 C
02.12.2003 07:25 1,5 C 2,4 C 91 % 1013 hPa 0,0 l/m 0,0 m/s (0 Bft) O-NO 75 0,00 min 0 lux 0,2 C 1,5 C
02.12.2003 07:30 1,5 C 2,3 C 91 % 1013 hPa 0,0 l/m 0,0 m/s (0 Bft) O-NO 75 0,00 min 0 lux 0,2 C 1,5 C
02.12.2003 07:35 1,4 C 2,3 C 91 % 1013 hPa 0,0 l/m 0,0 m/s (0 Bft) O-NO 75 0,00 min 0 lux 0,1 C 1,4 C
02.12.2003 07:40 1,3 C 2,3 C 91 % 1013 hPa 0,0 l/m 0,0 m/s (0 Bft) O-NO 75 0,00 min 0 lux -0,0 C 1,3 C
02.12.2003 07:45 1,3 C 2,2 C 91 % 1013 hPa 0,0 l/m 0,0 m/s (0 Bft) O-NO 75 0,00 min 0 lux -0,0 C 1,3 C
02.12.2003 07:50 1,3 C 2,2 C 91 % 1013 hPa 0,0 l/m 0,0 m/s (0 Bft) O-NO 75 0,00 min 0 lux -0,0 C 1,3 C
02.12.2003 07:55 1,4 C 2,2 C 91 % 1013 hPa 0,0 l/m 0,0 m/s (0 Bft) O-NO 75 0,00 min 74 lux 0,1 C 1,4 C
02.12.2003 08:00 1,4 C 2,2 C 91 % 1014 hPa 0,0 l/m 0,0 m/s (0 Bft) O-NO 75 0,00 min 85 lux 0,1 C 1,4 C
02.12.2003 08:05 1,5 C 2,1 C 91 % 1014 hPa 0,0 l/m 0,0 m/s (0 Bft) O-NO 75 0,00 min 156 lux 0,2 C 1,5 C
02.12.2003 08:10 1,3 C 2,1 C 91 % 1014 hPa 0,0 l/m 0,0 m/s (0 Bft) O-NO 75 0,00 min 213 lux -0,0 C 1,3 C
02.12.2003 08:15 1,3 C 2,1 C 91 % 1014 hPa 0,0 l/m 0,0 m/s (0 Bft) O-NO 75 0,00 min 313 lux -0,0 C 1,3 C
02.12.2003 08:20 1,4 C 2,1 C 91 % 1014 hPa 0,0 l/m 0,0 m/s (0 Bft) O-NO 75 0,00 min 471 lux 0,1 C 1,4 C
02.12.2003 08:25 1,3 C 2,1 C 91 % 1014 hPa 0,0 l/m 0,0 m/s (0 Bft) O-NO 75 0,00 min 654 lux -0,0 C 1,3 C
02.12.2003 08:30 1,2 C 2,0 C 91 % 1014 hPa 0,0 l/m 0,0 m/s (0 Bft) O-NO 75 0,00 min 893 lux -0,1 C 1,2 C
02.12.2003 08:35 1,4 C 2,0 C 91 % 1014 hPa 0,0 l/m 0,0 m/s (0 Bft) O-NO 75 0,00 min 1,19 klux 0,1 C 1,4 C
02.12.2003 08:40 1,4 C 2,0 C 91 % 1014 hPa 0,0 l/m 0,0 m/s (0 Bft) O-NO 75 0,00 min 1,19 klux 0,1 C 1,4 C
02.12.2003 08:45 1,3 C 2,0 C 91 % 1014 hPa 0,0 l/m 0,0 m/s (0 Bft) O-NO 75 0,00 min 1,58 klux -0,0 C 1,3 C
02.12.2003 08:50 1,3 C 2,0 C 91 % 1014 hPa 0,0 l/m 0,0 m/s (0 Bft) O-NO 75 0,00 min 2,24 klux -0,0 C 1,3 C
02.12.2003 08:55 1,4 C 2,0 C 91 % 1014 hPa 0,0 l/m 0,0 m/s (0 Bft) O-NO 75 0,00 min 3,12 klux 0,1 C 1,4 C
02.12.2003 09:00 1,5 C 2,0 C 91 % 1014 hPa 0,0 l/m 0,0 m/s (0 Bft) O-NO 75 0,00 min 3,38 klux 0,2 C 1,5 C
02.12.2003 09:05 1,5 C 2,0 C 91 % 1014 hPa 0,0 l/m 0,0 m/s (0 Bft) O-NO 75 0,00 min 3,70 klux 0,2 C 1,5 C
02.12.2003 09:10 1,7 C 2,1 C 91 % 1014 hPa 0,0 l/m 0,0 m/s (0 Bft) O-NO 75 0,00 min 4,32 klux 0,4 C 1,7 C
02.12.2003 09:15 1,7 C 2,1 C 92 % 1014 hPa 0,0 l/m 0,0 m/s (0 Bft) O-NO 75 0,00 min 5,00 klux 0,5 C 1,7 C
02.12.2003 09:20 1,8 C 2,1 C 92 % 1014 hPa 0,0 l/m 0,0 m/s (0 Bft) O-NO 75 0,00 min 5,46 klux 0,6 C 1,8 C
02.12.2003 09:25 1,8 C 2,2 C 91 % 1014 hPa 0,0 l/m 0,0 m/s (0 Bft) O-NO 75 0,00 min 5,69 klux 0,5 C 1,8 C
02.12.2003 09:30 1,7 C 2,3 C 91 % 1014 hPa 0,0 l/m 0,0 m/s (0 Bft) O-NO 75 0,00 min 5,91 klux 0,4 C 1,7 C
02.12.2003 09:35 1,8 C 2,3 C 91 % 1014 hPa 0,0 l/m 0,0 m/s (0 Bft) O-NO 75 0,00 min 6,35 klux 0,5 C 1,8 C
02.12.2003 09:40 1,8 C 2,3 C 91 % 1014 hPa 0,0 l/m 0,0 m/s (0 Bft) O-NO 75 0,00 min 6,45 klux 0,5 C 1,8 C
02.12.2003 09:45 1,8 C 2,4 C 91 % 1014 hPa 0,0 l/m 0,0 m/s (0 Bft) O-NO 75 0,00 min 7,34 klux 0,5 C 1,8 C
02.12.2003 09:50 2,0 C 2,5 C 90 % 1014 hPa 0,0 l/m 0,0 m/s (0 Bft) O-NO 75 0,00 min 7,89 klux 0,5 C 2,0 C
02.12.2003 09:55 2,2 C 2,6 C 90 % 1014 hPa 0,0 l/m 0,0 m/s (0 Bft) O-NO 75 0,00 min 7,99 klux 0,7 C 2,2 C
02.12.2003 10:00 2,3 C 2,6 C 90 % 1014 hPa 0,0 l/m 0,0 m/s (0 Bft) O-NO 75 0,00 min 8,54 klux 0,8 C 2,3 C
02.12.2003 10:05 2,4 C 2,8 C 90 % 1015 hPa 0,0 l/m 0,0 m/s (0 Bft) O-NO 75 0,00 min 9,3 klux 0,9 C 2,4 C
02.12.2003 10:10 2,4 C 2,8 C 90 % 1015 hPa 0,0 l/m 0,0 m/s (0 Bft) O-NO 75 0,00 min 9,1 klux 0,9 C 2,4 C
02.12.2003 10:15 2,6 C 3,0 C 90 % 1015 hPa 0,0 l/m 0,0 m/s (0 Bft) O-NO 75 0,00 min 9,8 klux 1,1 C 2,6 C
02.12.2003 10:20 2,9 C 3,1 C 90 % 1015 hPa 0,0 l/m 0,0 m/s (0 Bft) O-NO 75 0,00 min 10,6 klux 1,4 C 2,9 C
02.12.2003 10:25 3,1 C 3,2 C 89 % 1015 hPa 0,0 l/m 0,0 m/s (0 Bft) O-NO 75 0,00 min 11,5 klux 1,5 C 3,1 C
02.12.2003 10:30 3,1 C 3,3 C 89 % 1015 hPa 0,0 l/m 0,0 m/s (0 Bft) O-NO 75 0,00 min 12,0 klux 1,5 C 3,1 C
02.12.2003 10:35 3,2 C 3,4 C 88 % 1015 hPa 0,0 l/m 0,0 m/s (0 Bft) O-NO 75 0,00 min 13,0 klux 1,4 C 3,2 C
02.12.2003 10:40 3,3 C 3,5 C 88 % 1015 hPa 0,0 l/m 0,1 m/s (0 Bft) O-NO 75 0,00 min 12,0 klux 1,5 C 3,3 C
02.12.2003 10:45 3,7 C 3,7 C 89 % 1015 hPa 0,0 l/m 1,2 m/s (1 Bft) NO 55 0,00 min 15,0 klux 2,1 C 3,7 C
02.12.2003 10:50 4,1 C 3,8 C 88 % 1015 hPa 0,0 l/m 0,0 m/s (0 Bft) O 80 0,00 min 13,8 klux 2,3 C 4,1 C
02.12.2003 10:55 4,1 C 4,0 C 88 % 1015 hPa 0,0 l/m 0,0 m/s (0 Bft) O 80 0,00 min 14,6 klux 2,3 C 4,1 C
02.12.2003 11:00 4,2 C 4,1 C 87 % 1015 hPa 0,0 l/m 0,0 m/s (0 Bft) O 80 0,00 min 17,4 klux 2,2 C 4,2 C
02.12.2003 11:05 4,6 C 4,4 C 86 % 1015 hPa 0,0 l/m 0,0 m/s (0 Bft) O 80 5,00 min 24,2 klux 2,5 C 4,6 C
02.12.2003 11:10 4,9 C 4,7 C 85 % 1015 hPa 0,0 l/m 0,0 m/s (0 Bft) O 80 5,00 min 23,4 klux 2,6 C 4,9 C
02.12.2003 11:15 5,1 C 4,8 C 84 % 1015 hPa 0,0 l/m 0,0 m/s (0 Bft) O 80 0,00 min 18,0 klux 2,6 C 5,1 C
02.12.2003 11:20 5,2 C 5,1 C 83 % 1015 hPa 0,0 l/m 0,0 m/s (0 Bft) O 80 0,00 min 17,9 klux 2,6 C 5,2 C
02.12.2003 11:25 5,3 C 5,3 C 83 % 1015 hPa 0,0 l/m 0,0 m/s (0 Bft) O 80 0,00 min 19,7 klux 2,7 C 5,3 C
02.12.2003 11:30 5,2 C 5,3 C 83 % 1015 hPa 0,0 l/m 0,0 m/s (0 Bft) O 80 5,00 min 26,8 klux 2,6 C 5,2 C
02.12.2003 11:35 5,3 C 5,5 C 83 % 1014 hPa 0,0 l/m 0,0 m/s (0 Bft) O 85 0,00 min 17,1 klux 2,7 C 5,3 C
02.12.2003 11:40 5,6 C 5,7 C 81 % 1014 hPa 0,0 l/m 0,0 m/s (0 Bft) O 85 0,00 min 21,6 klux 2,6 C 5,6 C
02.12.2003 11:45 5,7 C 5,9 C 80 % 1014 hPa 0,0 l/m 0,0 m/s (0 Bft) O 85 0,00 min 16,9 klux 2,5 C 5,7 C
02.12.2003 11:50 5,8 C 6,0 C 79 % 1014 hPa 0,0 l/m 0,1 m/s (0 Bft) O22.5 90 0,00 min 17,1 klux 2,4 C 5,8 C
02.12.2003 11:55 5,8 C 6,1 C 79 % 1014 hPa 0,0 l/m 0,2 m/s (0 Bft) O-SO 115 0,00 min 16,5 klux 2,4 C 5,8 C
02.12.2003 12:00 6,0 C 6,2 C 79 % 1014 hPa 0,0 l/m 0,0 m/s (0 Bft) O22.5 95 0,00 min 17,7 klux 2,6 C 6,0 C
02.12.2003 12:05 6,1 C 6,3 C 78 % 1014 hPa 0,0 l/m 1,1 m/s (0 Bft) O-SO22.5 110 0,00 min 18,3 klux 2,6 C 6,1 C
02.12.2003 12:10 6,2 C 6,5 C 78 % 1014 hPa 0,0 l/m 2,2 m/s (1 Bft) SO22.5 130 0,00 min 19,2 klux 2,7 C 4,9 C
02.12.2003 12:15 6,0 C 6,6 C 76 % 1014 hPa 0,0 l/m 1,5 m/s (1 Bft) O-SO22.5 115 0,00 min 18,8 klux 2,1 C 6,0 C
02.12.2003 12:20 6,5 C 6,7 C 75 % 1014 hPa 0,0 l/m 1,1 m/s (1 Bft) O-SO22.5 110 0,00 min 17,0 klux 2,4 C 6,5 C
02.12.2003 12:25 6,5 C 6,7 C 75 % 1014 hPa 0,0 l/m 1,0 m/s (0 Bft) O-SO 120 0,00 min 15,4 klux 2,4 C 6,5 C
02.12.2003 12:30 6,6 C 6,8 C 75 % 1014 hPa 0,0 l/m 1,1 m/s (0 Bft) O22.5 90 0,00 min 16,0 klux 2,5 C 6,6 C
02.12.2003 12:35 6,7 C 6,8 C 75 % 1014 hPa 0,0 l/m 0,3 m/s (0 Bft) O-SO 105 0,00 min 17,4 klux 2,6 C 6,7 C
02.12.2003 12:40 6,7 C 6,9 C 74 % 1014 hPa 0,0 l/m 1,1 m/s (0 Bft) O-SO 105 0,00 min 17,4 klux 2,4 C 6,7 C
02.12.2003 12:45 6,8 C 7,0 C 74 % 1014 hPa 0,0 l/m 0,3 m/s (0 Bft) O-SO 105 5,00 min 41,2 klux 2,5 C 6,8 C
02.12.2003 12:50 7,0 C 7,2 C 74 % 1014 hPa 0,0 l/m 1,9 m/s (1 Bft) SO22.5 130 5,00 min 23,3 klux 2,7 C 6,7 C
02.12.2003 12:55 7,3 C 7,2 C 72 % 1014 hPa 0,0 l/m 2,0 m/s (1 Bft) SO22.5 135 5,00 min 52,6 klux 2,6 C 6,7 C
02.12.2003 13:00 7,7 C 7,5 C 71 % 1014 hPa 0,0 l/m 2,9 m/s (1 Bft) SO22.5 130 5,00 min 51,4 klux 2,8 C 4,8 C
02.12.2003 13:05 7,8 C 7,7 C 69 % 1014 hPa 0,0 l/m 2,8 m/s (1 Bft) SO45 125 5,00 min 41,3 klux 2,5 C 5,2 C
02.12.2003 13:10 7,9 C 7,8 C 68 % 1014 hPa 0,0 l/m 2,9 m/s (1 Bft) O-SO22.5 105 5,00 min 47,4 klux 2,4 C 5,1 C
02.12.2003 13:15 7,8 C 7,9 C 68 % 1014 hPa 0,0 l/m 3,4 m/s (1 Bft) O-SO45 110 5,00 min 46,2 klux 2,3 C 3,8 C
02.12.2003 13:20 7,5 C 7,9 C 68 % 1014 hPa 0,0 l/m 3,5 m/s (1 Bft) O-SO22.5 115 5,00 min 26,9 klux 2,0 C 3,3 C
02.12.2003 13:25 7,5 C 7,9 C 68 % 1014 hPa 0,0 l/m 3,1 m/s (1 Bft) SO45 125 5,00 min 34,6 klux 2,0 C 4,2 C
02.12.2003 13:30 7,4 C 7,9 C 69 % 1014 hPa 0,0 l/m 2,1 m/s (1 Bft) SO22.5 130 5,00 min 24,3 klux 2,1 C 6,4 C
02.12.2003 13:35 7,3 C 8,0 C 69 % 1014 hPa 0,0 l/m 2,1 m/s (1 Bft) SO22.5 130 0,00 min 20,2 klux 2,0 C 6,2 C
02.12.2003 13:40 7,3 C 8,0 C 70 % 1014 hPa 0,0 l/m 1,2 m/s (1 Bft) SO22.5 135 0,00 min 15,3 klux 2,2 C 7,3 C
02.12.2003 13:45 7,4 C 8,0 C 70 % 1014 hPa 0,0 l/m 1,9 m/s (1 Bft) O-SO22.5 115 0,00 min 14,7 klux 2,3 C 7,0 C
02.12.2003 13:50 7,4 C 8,0 C 69 % 1014 hPa 0,0 l/m 1,9 m/s (1 Bft) O22.5 100 5,00 min 36,2 klux 2,1 C 7,1 C
02.12.2003 13:55 7,6 C 8,1 C 69 % 1014 hPa 0,0 l/m 2,1 m/s (1 Bft) O-SO22.5 115 5,00 min 42,1 klux 2,3 C 6,6 C
02.12.2003 14:00 8,0 C 8,2 C 68 % 1013 hPa 0,0 l/m 1,6 m/s (1 Bft) O22.5 100 5,00 min 32,0 klux 2,5 C 8,0 C
02.12.2003 14:05 8,2 C 8,2 C 66 % 1014 hPa 0,0 l/m 1,4 m/s (1 Bft) O22.5 85 5,00 min 42,2 klux 2,2 C 8,2 C
02.12.2003 14:10 8,2 C 8,2 C 64 % 1014 hPa 0,0 l/m 3,0 m/s (1 Bft) O22.5 100 5,00 min 35,9 klux 1,8 C 5,1 C
02.12.2003 14:15 8,3 C 8,2 C 64 % 1014 hPa 0,0 l/m 2,2 m/s (1 Bft) O22.5 95 5,00 min 33,8 klux 1,9 C 7,2 C
02.12.2003 14:20 8,3 C 8,2 C 64 % 1014 hPa 0,0 l/m 2,7 m/s (1 Bft) O22.5 95 5,00 min 33,6 klux 1,9 C 6,0 C
02.12.2003 14:25 8,2 C 8,2 C 64 % 1013 hPa 0,0 l/m 2,2 m/s (1 Bft) O22.5 95 5,00 min 32,1 klux 1,8 C 7,0 C
02.12.2003 14:30 8,2 C 8,1 C 65 % 1013 hPa 0,0 l/m 2,2 m/s (1 Bft) O-SO22.5 120 5,00 min 31,3 klux 2,0 C 7,0 C
02.12.2003 14:35 8,2 C 8,1 C 65 % 1013 hPa 0,0 l/m 0,3 m/s (0 Bft) NO67.5 35 5,00 min 30,0 klux 2,0 C 8,2 C
02.12.2003 14:40 8,1 C 8,1 C 65 % 1013 hPa 0,0 l/m 1,0 m/s (0 Bft) NO45 45 5,00 min 22,3 klux 1,9 C 8,1 C
02.12.2003 14:45 7,9 C 8,0 C 66 % 1013 hPa 0,0 l/m 0,0 m/s (0 Bft) O22.5 90 5,00 min 24,0 klux 1,9 C 7,9 C
02.12.2003 14:50 7,8 C 8,0 C 66 % 1013 hPa 0,0 l/m 1,7 m/s (1 Bft) O-SO22.5 110 5,00 min 22,0 klux 1,9 C 7,8 C
02.12.2003 14:55 7,9 C 7,9 C 66 % 1013 hPa 0,0 l/m 2,7 m/s (1 Bft) O-SO22.5 105 5,00 min 23,1 klux 1,9 C 5,5 C
02.12.2003 15:00 7,9 C 7,9 C 66 % 1013 hPa 0,0 l/m 2,7 m/s (1 Bft) O-SO22.5 105 5,00 min 23,4 klux 1,9 C 5,5 C
02.12.2003 15:05 7,9 C 7,8 C 66 % 1013 hPa 0,0 l/m 2,9 m/s (1 Bft) O-SO22.5 105 5,00 min 22,1 klux 1,9 C 5,1 C
02.12.2003 15:10 7,8 C 7,8 C 66 % 1013 hPa 0,0 l/m 2,1 m/s (1 Bft) O-SO22.5 110 5,00 min 21,1 klux 1,9 C 6,8 C
02.12.2003 15:15 7,8 C 7,7 C 67 % 1013 hPa 0,0 l/m 2,5 m/s (1 Bft) O22.5 100 5,00 min 18,9 klux 2,1 C 5,8 C
02.12.2003 15:20 7,6 C 7,6 C 67 % 1013 hPa 0,0 l/m 1,3 m/s (1 Bft) O-SO22.5 115 5,00 min 15,1 klux 1,9 C 7,6 C
02.12.2003 15:25 7,5 C 7,5 C 68 % 1013 hPa 0,0 l/m 1,8 m/s (1 Bft) O-SO22.5 110 5,00 min 13,1 klux 2,0 C 7,5 C
02.12.2003 15:30 7,5 C 7,4 C 68 % 1013 hPa 0,0 l/m 1,6 m/s (1 Bft) O-SO22.5 105 5,00 min 9,7 klux 2,0 C 7,5 C
02.12.2003 15:35 7,4 C 7,3 C 68 % 1013 hPa 0,0 l/m 0,3 m/s (0 Bft) O 95 5,00 min 8,96 klux 1,9 C 7,4 C
02.12.2003 15:40 7,3 C 7,2 C 68 % 1013 hPa 0,0 l/m 0,1 m/s (0 Bft) O22.5 85 5,00 min 7,31 klux 1,8 C 7,3 C
02.12.2003 15:45 7,1 C 7,1 C 69 % 1013 hPa 0,0 l/m 0,5 m/s (0 Bft) O22.5 80 5,00 min 8,65 klux 1,8 C 7,1 C
02.12.2003 15:50 7,1 C 7,0 C 69 % 1013 hPa 0,0 l/m 2,0 m/s (1 Bft) O-SO22.5 105 5,00 min 6,03 klux 1,8 C 6,4 C
02.12.2003 15:55 6,8 C 7,0 C 71 % 1013 hPa 0,0 l/m 1,6 m/s (1 Bft) O-SO22.5 120 5,00 min 5,44 klux 1,9 C 6,8 C
02.12.2003 16:00 6,8 C 6,8 C 71 % 1013 hPa 0,0 l/m 1,8 m/s (1 Bft) O22.5 95 5,00 min 4,01 klux 1,9 C 6,7 C
02.12.2003 16:05 6,4 C 6,8 C 71 % 1013 hPa 0,0 l/m 0,2 m/s (0 Bft) O-SO 105 5,00 min 2,34 klux 1,5 C 6,4 C
02.12.2003 16:10 6,4 C 6,6 C 72 % 1013 hPa 0,0 l/m 0,0 m/s (0 Bft) O-SO 105 5,00 min 1,45 klux 1,7 C 6,4 C
02.12.2003 16:15 5,9 C 6,4 C 73 % 1013 hPa 0,0 l/m 0,0 m/s (0 Bft) O-SO 105 0,00 min 959 lux 1,4 C 5,9 C
02.12.2003 16:20 5,8 C 6,2 C 75 % 1013 hPa 0,0 l/m 0,0 m/s (0 Bft) O-SO 105 0,00 min 534 lux 1,7 C 5,8 C
02.12.2003 16:25 6,1 C 6,1 C 74 % 1013 hPa 0,0 l/m 1,3 m/s (1 Bft) O22.5 95 0,00 min 431 lux 1,8 C 6,1 C
02.12.2003 16:30 5,8 C 5,9 C 75 % 1013 hPa 0,0 l/m 0,1 m/s (0 Bft) O-SO 105 0,00 min 280 lux 1,7 C 5,8 C
02.12.2003 16:35 5,6 C 5,8 C 76 % 1013 hPa 0,0 l/m 0,3 m/s (0 Bft) O22.5 80 0,00 min 222 lux 1,7 C 5,6 C
02.12.2003 16:40 5,4 C 5,7 C 76 % 1013 hPa 0,0 l/m 0,0 m/s (0 Bft) O-NO 60 0,00 min 133 lux 1,5 C 5,4 C
02.12.2003 16:45 5,3 C 5,5 C 77 % 1014 hPa 0,0 l/m 0,2 m/s (0 Bft) O-NO 70 0,00 min 75 lux 1,6 C 5,3 C
02.12.2003 16:50 5,1 C 5,3 C 78 % 1014 hPa 0,0 l/m 0,0 m/s (0 Bft) O-NO 75 0,00 min 39 lux 1,6 C 5,1 C
02.12.2003 16:55 4,8 C 5,3 C 79 % 1014 hPa 0,0 l/m 0,0 m/s (0 Bft) O-NO 75 0,00 min 22 lux 1,5 C 4,8 C
02.12.2003 17:00 4,6 C 5,2 C 79 % 1014 hPa 0,0 l/m 0,0 m/s (0 Bft) O-NO 75 0,00 min 13 lux 1,3 C 4,6 C
02.12.2003 17:05 4,7 C 5,1 C 80 % 1014 hPa 0,0 l/m 0,0 m/s (0 Bft) O-NO 75 0,00 min 5 lux 1,6 C 4,7 C
02.12.2003 17:10 4,7 C 5,0 C 81 % 1014 hPa 0,0 l/m 0,0 m/s (0 Bft) O-NO 75 0,00 min 4 lux 1,7 C 4,7 C
02.12.2003 17:15 4,6 C 5,0 C 81 % 1014 hPa 0,0 l/m 0,0 m/s (0 Bft) O-NO 75 0,00 min 0 lux 1,6 C 4,6 C
02.12.2003 17:20 4,4 C 4,8 C 81 % 1014 hPa 0,0 l/m 0,0 m/s (0 Bft) O-NO 75 0,00 min 0 lux 1,4 C 4,4 C
02.12.2003 17:25 4,5 C 4,7 C 81 % 1014 hPa 0,0 l/m 0,0 m/s (0 Bft) O-NO 75 0,00 min 0 lux 1,5 C 4,5 C
02.12.2003 17:30 4,6 C 4,6 C 82 % 1014 hPa 0,0 l/m 0,0 m/s (0 Bft) O-NO 75 0,00 min 0 lux 1,8 C 4,6 C
02.12.2003 17:35 4,3 C 4,5 C 82 % 1014 hPa 0,0 l/m 0,0 m/s (0 Bft) O-NO 75 0,00 min 0 lux 1,5 C 4,3 C
02.12.2003 17:40 4,4 C 4,4 C 82 % 1014 hPa 0,0 l/m 0,0 m/s (0 Bft) O-NO 75 0,00 min 0 lux 1,6 C 4,4 C
02.12.2003 17:45 4,4 C 4,4 C 82 % 1014 hPa 0,0 l/m 1,3 m/s (1 Bft) NO22.5 45 0,00 min 0 lux 1,6 C 4,4 C
02.12.2003 17:50 4,0 C 4,4 C 82 % 1014 hPa 0,0 l/m 0,0 m/s (0 Bft) NO 45 0,00 min 0 lux 1,2 C 4,0 C
02.12.2003 17:55 3,8 C 4,3 C 83 % 1014 hPa 0,0 l/m 0,0 m/s (0 Bft) SW 215 0,00 min 0 lux 1,2 C 3,8 C
02.12.2003 18:00 3,7 C 4,2 C 84 % 1014 hPa 0,0 l/m 0,0 m/s (0 Bft) SW 215 0,00 min 0 lux 1,3 C 3,7 C
02.12.2003 18:05 3,6 C 4,2 C 84 % 1014 hPa 0,0 l/m 0,0 m/s (0 Bft) O-SO67.5 115 0,00 min 0 lux 1,2 C 3,6 C
02.12.2003 18:10 3,6 C 4,1 C 84 % 1014 hPa 0,0 l/m 0,0 m/s (0 Bft) NO 45 0,00 min 0 lux 1,2 C 3,6 C
02.12.2003 18:15 3,7 C 3,9 C 85 % 1014 hPa 0,0 l/m 0,0 m/s (0 Bft) NO 45 0,00 min 0 lux 1,4 C 3,7 C
02.12.2003 18:20 3,8 C 3,9 C 85 % 1014 hPa 0,0 l/m 0,0 m/s (0 Bft) NO 45 0,00 min 0 lux 1,5 C 3,8 C
02.12.2003 18:25 3,6 C 3,8 C 86 % 1014 hPa 0,0 l/m 0,0 m/s (0 Bft) NO 45 0,00 min 0 lux 1,5 C 3,6 C
02.12.2003 18:30 3,4 C 3,7 C 85 % 1014 hPa 0,0 l/m 0,0 m/s (0 Bft) NO 45 0,00 min 0 lux 1,1 C 3,4 C
02.12.2003 18:35 3,3 C 3,7 C 85 % 1014 hPa 0,0 l/m 0,0 m/s (0 Bft) NO 45 0,00 min 0 lux 1,0 C 3,3 C
02.12.2003 18:40 3,6 C 3,7 C 86 % 1014 hPa 0,0 l/m 0,0 m/s (0 Bft) NO 45 0,00 min 0 lux 1,5 C 3,6 C
02.12.2003 18:45 3,2 C 3,6 C 86 % 1014 hPa 0,0 l/m 0,0 m/s (0 Bft) NO 45 0,00 min 0 lux 1,1 C 3,2 C
02.12.2003 18:50 3,3 C 3,5 C 86 % 1014 hPa 0,0 l/m 0,0 m/s (0 Bft) NO 45 0,00 min 0 lux 1,2 C 3,3 C
02.12.2003 18:55 3,0 C 3,5 C 86 % 1014 hPa 0,0 l/m 0,0 m/s (0 Bft) S-SW 205 0,00 min 0 lux 0,9 C 3,0 C
02.12.2003 19:00 2,9 C 3,5 C 87 % 1014 hPa 0,0 l/m 0,0 m/s (0 Bft) S-SW 205 0,00 min 0 lux 1,0 C 2,9 C
02.12.2003 19:05 2,7 C 3,4 C 87 % 1014 hPa 0,0 l/m 0,0 m/s (0 Bft) S-SW 205 0,00 min 0 lux 0,8 C 2,7 C
02.12.2003 19:10 2,6 C 3,3 C 87 % 1014 hPa 0,0 l/m 0,0 m/s (0 Bft) S-SW 205 0,00 min 0 lux 0,7 C 2,6 C
02.12.2003 19:15 2,4 C 3,2 C 87 % 1014 hPa 0,0 l/m 0,0 m/s (0 Bft) S-SW 205 0,00 min 0 lux 0,5 C 2,4 C
02.12.2003 19:20 2,3 C 3,2 C 87 % 1014 hPa 0,0 l/m 0,0 m/s (0 Bft) S-SW 205 0,00 min 0 lux 0,4 C 2,3 C
02.12.2003 19:25 2,4 C 3,1 C 87 % 1014 hPa 0,0 l/m 0,0 m/s (0 Bft) S-SW 205 0,00 min 0 lux 0,5 C 2,4 C
02.12.2003 19:30 2,1 C 3,0 C 87 % 1014 hPa 0,0 l/m 0,0 m/s (0 Bft) S-SW 205 0,00 min 0 lux 0,2 C 2,1 C
02.12.2003 19:35 2,4 C 2,8 C 88 % 1014 hPa 0,0 l/m 0,0 m/s (0 Bft) O-SO67.5 105 0,00 min 0 lux 0,6 C 2,4 C
02.12.2003 19:40 2,1 C 2,8 C 88 % 1015 hPa 0,0 l/m 0,0 m/s (0 Bft) O 90 0,00 min 0 lux 0,3 C 2,1 C
02.12.2003 19:45 2,0 C 2,7 C 88 % 1014 hPa 0,0 l/m 0,0 m/s (0 Bft) O 90 0,00 min 0 lux 0,2 C 2,0 C
02.12.2003 19:50 2,0 C 2,7 C 88 % 1014 hPa 0,0 l/m 0,0 m/s (0 Bft) O 90 0,00 min 0 lux 0,2 C 2,0 C
02.12.2003 19:55 1,7 C 2,6 C 89 % 1014 hPa 0,0 l/m 0,0 m/s (0 Bft) O-SO22.5 115 0,00 min 0 lux 0,1 C 1,7 C
02.12.2003 20:00 1,7 C 2,5 C 89 % 1015 hPa 0,0 l/m 0,0 m/s (0 Bft) O-SO 115 0,00 min 0 lux 0,1 C 1,7 C
02.12.2003 20:05 1,7 C 2,5 C 89 % 1015 hPa 0,0 l/m 0,0 m/s (0 Bft) O-SO 115 0,00 min 0 lux 0,1 C 1,7 C
02.12.2003 20:10 1,8 C 2,4 C 89 % 1015 hPa 0,0 l/m 0,0 m/s (0 Bft) O-SO 115 0,00 min 0 lux 0,2 C 1,8 C
02.12.2003 20:15 1,7 C 2,4 C 89 % 1015 hPa 0,0 l/m 0,0 m/s (0 Bft) O-SO 115 0,00 min 0 lux 0,1 C 1,7 C
02.12.2003 20:20 1,5 C 2,3 C 89 % 1015 hPa 0,0 l/m 0,0 m/s (0 Bft) O-SO 115 0,00 min 0 lux -0,1 C 1,5 C
02.12.2003 20:25 1,6 C 2,2 C 89 % 1015 hPa 0,0 l/m 0,0 m/s (0 Bft) N-NO 15 0,00 min 0 lux -0,0 C 1,6 C
02.12.2003 20:30 1,5 C 2,2 C 89 % 1015 hPa 0,0 l/m 0,0 m/s (0 Bft) N-NO 15 0,00 min 0 lux -0,1 C 1,5 C
02.12.2003 20:35 1,3 C 2,1 C 89 % 1015 hPa 0,0 l/m 0,0 m/s (0 Bft) N-NO 15 0,00 min 0 lux -0,3 C 1,3 C
02.12.2003 20:40 1,3 C 2,1 C 90 % 1015 hPa 0,0 l/m 0,0 m/s (0 Bft) N-NO 15 0,00 min 0 lux -0,2 C 1,3 C
02.12.2003 20:45 1,3 C 2,0 C 90 % 1015 hPa 0,0 l/m 0,0 m/s (0 Bft) N-NO 15 0,00 min 0 lux -0,2 C 1,3 C
02.12.2003 20:50 1,1 C 2,0 C 90 % 1015 hPa 0,0 l/m 0,0 m/s (0 Bft) NW 315 0,00 min 0 lux -0,4 C 1,1 C
02.12.2003 20:55 1,1 C 2,0 C 90 % 1015 hPa 0,0 l/m 0,0 m/s (0 Bft) NW 315 0,00 min 0 lux -0,4 C 1,1 C
02.12.2003 21:00 1,3 C 1,8 C 90 % 1015 hPa 0,0 l/m 0,0 m/s (0 Bft) NW 315 0,00 min 0 lux -0,2 C 1,3 C
02.12.2003 21:05 1,1 C 1,8 C 90 % 1015 hPa 0,0 l/m 0,0 m/s (0 Bft) NW 315 0,00 min 0 lux -0,4 C 1,1 C
02.12.2003 21:10 1,0 C 1,7 C 90 % 1015 hPa 0,0 l/m 0,0 m/s (0 Bft) NW 315 0,00 min 0 lux -0,5 C 1,0 C
02.12.2003 21:15 1,0 C 1,7 C 90 % 1015 hPa 0,0 l/m 0,0 m/s (0 Bft) NW 315 0,00 min 0 lux -0,5 C 1,0 C
02.12.2003 21:20 0,8 C 1,7 C 91 % 1015 hPa 0,0 l/m 0,0 m/s (0 Bft) NW 315 0,00 min 0 lux -0,5 C 0,8 C
02.12.2003 21:25 0,8 C 1,6 C 90 % 1016 hPa 0,0 l/m 0,0 m/s (0 Bft) NW 315 0,00 min 0 lux -0,6 C 0,8 C
02.12.2003 21:30 0,9 C 1,6 C 91 % 1015 hPa 0,0 l/m 0,0 m/s (0 Bft) NW 315 0,00 min 0 lux -0,4 C 0,9 C
02.12.2003 21:35 0,6 C 1,5 C 91 % 1015 hPa 0,0 l/m 0,0 m/s (0 Bft) NW 315 0,00 min 0 lux -0,7 C 0,6 C
02.12.2003 21:40 0,6 C 1,5 C 91 % 1016 hPa 0,0 l/m 0,0 m/s (0 Bft) NW 315 0,00 min 0 lux -0,7 C 0,6 C
02.12.2003 21:45 0,5 C 1,4 C 91 % 1016 hPa 0,0 l/m 0,0 m/s (0 Bft) NW 315 0,00 min 0 lux -0,8 C 0,5 C
02.12.2003 21:50 0,7 C 1,4 C 91 % 1016 hPa 0,0 l/m 0,0 m/s (0 Bft) NW 315 0,00 min 0 lux -0,6 C 0,7 C
02.12.2003 21:55 0,6 C 1,4 C 91 % 1016 hPa 0,0 l/m 0,0 m/s (0 Bft) NW 315 0,00 min 0 lux -0,7 C 0,6 C
02.12.2003 22:00 0,5 C 1,3 C 91 % 1016 hPa 0,0 l/m 0,0 m/s (0 Bft) NW 315 0,00 min 0 lux -0,8 C 0,5 C
02.12.2003 22:05 0,9 C 1,3 C 91 % 1016 hPa 0,0 l/m 0,0 m/s (0 Bft) NW 315 0,00 min 0 lux -0,4 C 0,9 C
02.12.2003 22:10 1,0 C 1,3 C 91 % 1016 hPa 0,0 l/m 0,0 m/s (0 Bft) NW 315 0,00 min 0 lux -0,3 C 1,0 C
02.12.2003 22:15 0,9 C 1,3 C 92 % 1016 hPa 0,0 l/m 0,0 m/s (0 Bft) NW 315 0,00 min 0 lux -0,2 C 0,9 C
02.12.2003 22:20 0,9 C 1,3 C 91 % 1016 hPa 0,0 l/m 0,0 m/s (0 Bft) NW 315 0,00 min 0 lux -0,4 C 0,9 C
02.12.2003 22:25 0,5 C 1,3 C 91 % 1016 hPa 0,0 l/m 0,0 m/s (0 Bft) NW 315 0,00 min 0 lux -0,8 C 0,5 C
02.12.2003 22:30 0,5 C 1,2 C 91 % 1016 hPa 0,0 l/m 0,0 m/s (0 Bft) NW 315 0,00 min 0 lux -0,8 C 0,5 C
02.12.2003 22:35 0,4 C 1,2 C 91 % 1016 hPa 0,0 l/m 0,0 m/s (0 Bft) NW 315 0,00 min 0 lux -0,9 C 0,4 C
02.12.2003 22:40 0,6 C 1,2 C 91 % 1016 hPa 0,0 l/m 0,0 m/s (0 Bft) NW 315 0,00 min 0 lux -0,7 C 0,6 C
02.12.2003 22:45 0,4 C 1,2 C 91 % 1016 hPa 0,0 l/m 0,0 m/s (0 Bft) NW 315 0,00 min 0 lux -0,9 C 0,4 C
02.12.2003 22:50 0,4 C 1,2 C 91 % 1016 hPa 0,0 l/m 0,0 m/s (0 Bft) NW 315 0,00 min 0 lux -0,9 C 0,4 C
02.12.2003 22:55 0,4 C 1,2 C 91 % 1016 hPa 0,0 l/m 0,0 m/s (0 Bft) NW 315 0,00 min 0 lux -0,9 C 0,4 C
02.12.2003 23:00 0,6 C 1,2 C 91 % 1016 hPa 0,0 l/m 0,0 m/s (0 Bft) NW 315 0,00 min 0 lux -0,7 C 0,6 C
02.12.2003 23:05 0,5 C 1,2 C 91 % 1016 hPa 0,0 l/m 0,0 m/s (0 Bft) NW 315 0,00 min 0 lux -0,8 C 0,5 C
02.12.2003 23:10 0,6 C 1,2 C 91 % 1016 hPa 0,0 l/m 0,0 m/s (0 Bft) NW 315 0,00 min 0 lux -0,7 C 0,6 C
02.12.2003 23:15 0,5 C 1,2 C 91 % 1016 hPa 0,0 l/m 0,0 m/s (0 Bft) NW 315 0,00 min 0 lux -0,8 C 0,5 C
02.12.2003 23:20 0,8 C 1,2 C 92 % 1016 hPa 0,0 l/m 0,0 m/s (0 Bft) NW 315 0,00 min 0 lux -0,3 C 0,8 C
02.12.2003 23:25 0,6 C 1,2 C 92 % 1016 hPa 0,0 l/m 0,0 m/s (0 Bft) NW 315 0,00 min 0 lux -0,5 C 0,6 C
02.12.2003 23:30 0,8 C 1,2 C 92 % 1016 hPa 0,0 l/m 0,0 m/s (0 Bft) NW 315 0,00 min 0 lux -0,3 C 0,8 C
02.12.2003 23:35 0,8 C 1,3 C 92 % 1016 hPa 0,0 l/m 0,0 m/s (0 Bft) NW 315 0,00 min 0 lux -0,3 C 0,8 C
02.12.2003 23:40 0,8 C 1,3 C 92 % 1016 hPa 0,0 l/m 0,0 m/s (0 Bft) NW 315 0,00 min 0 lux -0,3 C 0,8 C
02.12.2003 23:45 0,8 C 1,2 C 92 % 1016 hPa 0,0 l/m 0,0 m/s (0 Bft) NW 315 0,00 min 0 lux -0,3 C 0,8 C
02.12.2003 23:50 0,5 C 1,2 C 92 % 1016 hPa 0,0 l/m 0,0 m/s (0 Bft) NW 315 0,00 min 0 lux -0,6 C 0,5 C
02.12.2003 23:55 0,4 C 1,2 C 91 % 1016 hPa 0,0 l/m 0,0 m/s (0 Bft) NW 315 0,00 min 0 lux -0,9 C 0,4 C
_ Min-Zeit 22:35 22:30 14:10 00:00 - 00:00 - - - - 22:35 22:35
Minimum _ 0,4 C 1,2 C 64 % 1011 hPa - 0,0 m/s (0 Bft) - - - - -0,9 C 0,4 C
_ Max-Zeit 14:15 14:00 09:15 21:25 03:45 13:20 - - 11:05 12:55 13:00 14:05
Maximum _ 8,3 C 8,2 C 92 % 1016 hPa 0,4 l/m 3,5 m/s
O-SO (3 Bft)
- - 5,00 min 52,6 klux 2,8 C 8,2 C
Durchschnitt _ 3,5 C 4,0 C 85 % 1014 hPa #0,4 l/m 0,3 m/s (1 Bft) O-SO - #3:30 h 5,78 klux 1,0 C 3,3 C